DW5595 Weather Reports


time (UTC)temp
C
wind
direction
speed
KPH
gust
KPH
rain 1hr
cm
rain 24hr
cm
rain mn
cm
humidity
%
barometer
mb
20260505200018 24 182 3.2 16.1 0.00 0.00 0.00 38 1014.0
20260505194516 24 94 8.0 20.9 0.00 0.00 0.00 39 1013.9
20260505193028 24 153 8.0 29.0 0.00 0.00 0.00 38 1014.1
20260505191523 24 173 4.8 19.3 0.00 0.00 0.00 39 1014.5
20260505190034 24 174 4.8 17.7 0.00 0.00 0.00 38 1014.9
20260505184523 24 161 9.7 30.6 0.00 0.00 0.00 35 1015.3
20260505183021 24 95 8.0 22.5 0.00 0.00 0.00 38 1015.2
20260505181519 24 144 3.2 17.7 0.00 0.00 0.00 41 1015.4
20260505180016 23 132 4.8 29.0 0.00 0.00 0.00 40 1015.6
20260505174525 23 220 4.8 17.7 0.00 0.00 0.00 41 1015.7
20260505173036 23 164 6.4 22.5 0.00 0.00 0.00 42 1015.7
20260505171538 23 123 3.2 20.9 0.00 0.00 0.00 42 1015.7
20260505170023 23 144 8.0 16.1 0.00 0.00 0.00 41 1015.9
20260505164523 23 162 1.6 17.7 0.00 0.00 0.00 42 1015.9
20260505163020 23 33 1.6 24.1 0.00 0.00 0.00 44 1016.0
20260505161515 22 162 3.2 9.7 0.00 0.00 0.00 48 1016.1
20260505153006 21 231 4.8 17.7 0.00 0.00 0.00 51 1016.7
20260505121514 10 165 0.0 3.2 0.00 0.00 0.00 90 1015.9
20260505120048 9 140 0.0 0.0 0.00 0.00 0.00 90 1015.8
20260505114510 9 140 0.0 0.0 0.00 0.00 0.00 90 1015.8
20260505113017 8 140 0.0 0.0 0.00 0.00 0.00 91 1015.7
20260505111521 7 159 0.0 0.0 0.00 0.00 0.00 91 1015.6
20260505101521 7 163 0.0 0.0 0.00 0.00 0.00 90 1015.8
20260505100026 7 163 0.0 0.0 0.00 0.00 0.00 89 1015.8
20260505094524 7 163 0.0 0.0 0.00 0.00 0.00 88 1015.7
20260505093022 7 163 0.0 0.0 0.00 0.00 0.00 87 1015.6
20260505091527 8 163 0.0 0.0 0.00 0.00 0.00 85 1015.5
20260505090036 8 163 0.0 0.0 0.00 0.00 0.00 83 1015.4
20260505084517 9 163 0.0 0.0 0.00 0.00 0.00 80 1015.2
20260505083026 10 148 0.0 1.6 0.00 0.00 0.00 80 1015.0
20260505081527 10 157 0.0 3.2 0.00 0.00 0.00 81 1014.8
20260505080021 10 201 0.0 3.2 0.00 0.00 0.00 80 1014.8
20260505074524 9 137 0.0 0.0 0.00 0.00 0.00 83 1014.5
20260505073040 9 137 0.0 0.0 0.00 0.00 0.00 81 1014.5
20260505071521 10 137 0.0 0.0 0.00 0.00 0.00 79 1014.7
20260505070021 10 136 1.6 4.8 0.00 0.00 0.00 80 1014.6
20260505064533 10 138 0.0 3.2 0.00 0.00 0.00 79 1014.6
20260505063012 10 148 0.0 4.8 0.00 0.00 0.00 79 1014.7
20260505061540 11 166 0.0 0.0 0.00 0.00 0.00 73 1014.5
20260505060024 12 166 0.0 0.0 0.00 0.00 0.00 72 1014.6
20260505054542 12 166 0.0 0.0 0.00 0.00 0.00 66 1014.7
20260505053030 13 166 0.0 0.0 0.00 0.00 0.00 66 1014.7
20260505051520 13 137 0.0 1.6 0.00 0.00 0.00 65 1014.8
20260505041525 16 127 0.0 6.4 0.00 0.00 0.00 54 1014.5
20260505040023 16 134 0.0 6.4 0.00 0.00 0.00 54 1014.6
20260505033022 16 183 1.6 6.4 0.00 0.00 0.00 53 1014.9
20260505031535 16 163 1.6 4.8 0.00 0.00 0.00 52 1014.8
20260505024519 17 174 3.2 9.7 0.00 0.00 0.00 51 1014.8
20260505021527 16 134 1.6 8.0 0.00 0.00 0.00 53 1014.6
20260505020029 16 150 0.0 0.0 0.00 0.00 0.00 53 1014.5
20260505013015 17 134 0.0 0.0 0.00 0.00 0.00 48 1014.3
20260505011523 18 134 0.0 1.6 0.00 0.00 0.00 45 1014.3
20260505010026 18 167 0.0 4.8 0.00 0.00 0.00 45 1014.1
20260505004542 18 157 1.6 6.4 0.00 0.00 0.00 50 1013.9
20260505003023 18 132 3.2 6.4 0.00 0.00 0.00 47 1013.7
20260505001522 19 171 1.6 4.8 0.00 0.00 0.00 45 1013.5
20260505000035 20 159 1.6 3.2 0.00 0.00 0.00 41 1013.6
20260504233014 22 152 0.0 3.2 0.00 0.00 0.00 37 1013.5
20260504231531 22 158 3.2 9.7 0.00 0.00 0.00 36 1013.3
20260504230026 22 163 1.6 11.3 0.00 0.00 0.00 34 1013.3
20260504224526 23 157 3.2 11.3 0.00 0.00 0.00 34 1013.2
20260504223020 23 223 6.4 12.9 0.00 0.00 0.00 34 1013.3
20260504221523 23 138 8.0 17.7 0.00 0.00 0.00 34 1013.3
20260504220020 23 128 1.6 14.5 0.00 0.00 0.00 35 1013.2
20260504214514 23 176 4.8 17.7 0.00 0.00 0.00 34 1013.3
20260504213028 23 126 3.2 19.3 0.00 0.00 0.00 34 1013.2
20260504211510 23 144 8.0 16.1 0.00 0.00 0.00 34 1013.2
20260504210007 24 153 1.6 16.1 0.00 0.00 0.00 33 1013.3
20260504204505 24 117 4.8 14.5 0.00 0.00 0.00 33 1013.5
20260504203007 24 130 1.6 16.1 0.00 0.00 0.00 36 1013.5
20260504201518 24 159 4.8 22.5 0.00 0.00 0.00 33 1013.8